GW4926 Weather Reports


Display with metric or nautical units.
time (UTC)temp
F
wind
direction
speed
MPH
gust
MPH
rain 1hr
in
rain 24hr
in
rain mn
in
humidity
%
barometer
mb
20260505065003 60 0 0.0 0.0 0.00 0.00 0.00 73 1015.0
20260505064503 60 0 0.0 0.0 0.00 0.00 0.00 72 1015.0
20260505064004 60 240 0.0 1.0 0.00 0.00 0.00 72 1015.0
20260505063504 61 0 0.0 0.0 0.00 0.00 0.00 71 1015.0
20260505063003 61 145 0.0 0.0 0.00 0.00 0.00 69 1015.0
20260505062503 61 0 0.0 0.0 0.00 0.00 0.00 69 1015.0
20260505062004 61 220 1.0 1.0 0.00 0.00 0.00 68 1015.0
20260505061503 62 261 0.0 0.0 0.00 0.00 0.00 68 1015.0
20260505061003 62 0 0.0 0.0 0.00 0.00 0.00 66 1015.0
20260505060503 62 231 0.0 0.0 0.00 0.00 0.00 66 1015.0
20260505060004 62 214 1.0 2.0 0.00 0.00 0.00 66 1015.0
20260505055503 62 0 0.0 0.0 0.00 0.00 0.00 66 1015.0
20260505055003 62 219 0.0 1.0 0.00 0.00 0.00 66 1015.0
20260505054503 62 229 0.0 1.0 0.00 0.00 0.00 65 1015.0
20260505054003 62 216 0.0 0.0 0.00 0.00 0.00 65 1015.0
20260505053504 62 227 1.0 2.0 0.00 0.00 0.00 65 1015.0
20260505053003 63 232 0.0 1.0 0.00 0.00 0.00 64 1015.0
20260505052503 63 220 1.0 1.0 0.00 0.00 0.00 64 1015.0
20260505052003 63 227 1.0 1.0 0.00 0.00 0.00 64 1015.0
20260505051503 63 0 0.0 0.0 0.00 0.00 0.00 64 1015.0
20260505051004 63 227 0.0 0.0 0.00 0.00 0.00 63 1015.0
20260505050503 63 216 1.0 2.0 0.00 0.00 0.00 63 1015.0
20260505041504 65 223 1.0 2.0 0.00 0.00 0.00 60 1015.0
20260505041003 65 228 0.0 1.0 0.00 0.00 0.00 60 1015.0
20260505040503 65 212 2.0 3.0 0.00 0.00 0.00 60 1015.0
20260505040005 65 235 0.0 0.0 0.00 0.00 0.00 60 1015.0
20260505035504 65 0 0.0 0.0 0.00 0.00 0.00 59 1015.0
20260505035005 65 247 0.0 0.0 0.00 0.00 0.00 59 1015.0
20260505034504 66 215 1.0 1.0 0.00 0.00 0.00 59 1015.0
20260505034004 66 242 0.0 0.0 0.00 0.00 0.00 58 1015.0
20260505033506 66 233 2.0 3.0 0.00 0.00 0.00 58 1015.0
20260505033003 66 222 1.0 3.0 0.00 0.00 0.00 57 1015.0
20260505032503 66 241 1.0 2.0 0.00 0.00 0.00 57 1015.0
20260505032004 67 220 2.0 3.0 0.00 0.00 0.00 57 1015.0
20260505031503 67 235 1.0 2.0 0.00 0.00 0.00 56 1015.0
20260505031003 67 215 1.0 1.0 0.00 0.00 0.00 56 1015.0
20260505030503 67 216 0.0 2.0 0.00 0.00 0.00 55 1015.0
20260505030003 67 248 2.0 3.0 0.00 0.00 0.00 54 1015.0
20260505025504 67 247 0.0 1.0 0.00 0.00 0.00 54 1015.0
20260505025004 67 229 0.0 1.0 0.00 0.00 0.00 52 1015.0
20260505024504 68 0 0.0 0.0 0.00 0.00 0.00 51 1015.0
20260505024003 68 242 0.0 1.0 0.00 0.00 0.00 49 1015.0
20260505023503 68 238 1.0 2.0 0.00 0.00 0.00 48 1015.0
20260505023004 69 237 1.0 2.0 0.00 0.00 0.00 48 1015.0
20260505022503 69 245 1.0 1.0 0.00 0.00 0.00 47 1015.0
20260505022003 69 283 0.0 0.0 0.00 0.00 0.00 46 1015.0
20260505021503 69 236 1.0 1.0 0.00 0.00 0.00 46 1015.0
20260505021003 69 0 0.0 0.0 0.00 0.00 0.00 44 1015.0
20260505020503 69 234 1.0 2.0 0.00 0.00 0.00 44 1015.0
20260505020004 69 236 1.0 1.0 0.00 0.00 0.00 44 1015.0
20260505015503 70 237 1.0 2.0 0.00 0.00 0.00 43 1015.0
20260505015003 70 222 2.0 4.0 0.00 0.00 0.00 43 1015.0
20260505014505 70 234 0.0 0.0 0.00 0.00 0.00 43 1015.0
20260505014004 70 246 1.0 1.0 0.00 0.00 0.00 42 1015.0
20260505013503 70 266 0.0 1.0 0.00 0.00 0.00 42 1015.0
20260505013003 70 239 1.0 1.0 0.00 0.00 0.00 42 1014.0
20260505012503 70 246 0.0 0.0 0.00 0.00 0.00 42 1014.0
20260505012003 70 262 1.0 1.0 0.00 0.00 0.00 42 1014.0
20260505011503 70 233 1.0 2.0 0.00 0.00 0.00 42 1014.0
20260505011003 71 239 1.0 2.0 0.00 0.00 0.00 41 1014.0
20260505010503 71 244 0.0 1.0 0.00 0.00 0.00 41 1014.0
20260505010003 71 219 0.0 0.0 0.00 0.00 0.00 41 1014.0
20260505005503 71 255 0.0 1.0 0.00 0.00 0.00 41 1014.0
20260505005004 71 234 0.0 1.0 0.00 0.00 0.00 40 1014.0
20260505004504 72 229 0.0 1.0 0.00 0.00 0.00 39 1014.0
20260505004004 72 248 1.0 1.0 0.00 0.00 0.00 39 1014.0
20260505003504 72 239 0.0 0.0 0.00 0.00 0.00 38 1014.0
20260505003003 72 239 1.0 3.0 0.00 0.00 0.00 38 1014.0
20260505002503 72 237 1.0 2.0 0.00 0.00 0.00 39 1014.0
20260505002004 72 235 1.0 1.0 0.00 0.00 0.00 40 1014.0
20260505001503 71 237 2.0 2.0 0.00 0.00 0.00 40 1014.0
20260505001003 71 246 1.0 1.0 0.00 0.00 0.00 39 1014.0
20260505000503 71 0 0.0 0.0 0.00 0.00 0.00 39 1014.0
20260505000004 71 234 1.0 1.0 0.00 0.00 0.00 41 1013.0
20260504235504 71 240 1.0 2.0 0.00 0.00 0.00 43 1013.0
20260504235003 71 242 1.0 1.0 0.00 0.00 0.00 42 1013.0
20260504234503 72 229 2.0 2.0 0.00 0.00 0.00 44 1013.0
20260504234003 73 229 0.0 0.0 0.00 0.00 0.00 42 1013.0
20260504233503 74 0 0.0 0.0 0.00 0.00 0.00 42 1013.0
20260504233003 74 217 0.0 0.0 0.00 0.00 0.00 41 1013.0
20260504232504 75 0 0.0 0.0 0.00 0.00 0.00 41 1013.0
20260504232004 75 0 0.0 0.0 0.00 0.00 0.00 38 1013.0
20260504231503 76 0 0.0 0.0 0.00 0.00 0.00 37 1013.0
20260504231005 76 0 0.0 0.0 0.00 0.00 0.00 37 1013.0
20260504230504 76 225 0.0 1.0 0.00 0.00 0.00 38 1013.0
20260504230004 76 209 2.0 4.0 0.00 0.00 0.00 35 1013.0
20260504225504 77 0 0.0 0.0 0.00 0.00 0.00 37 1013.0
20260504225006 77 0 0.0 0.0 0.00 0.00 0.00 38 1013.0
20260504224503 77 190 0.0 1.0 0.00 0.00 0.00 30 1013.0
20260504224004 78 216 2.0 4.0 0.00 0.00 0.00 39 1013.0
20260504223504 78 0 0.0 0.0 0.00 0.00 0.00 37 1013.0
20260504223005 78 0 0.0 0.0 0.00 0.00 0.00 37 1013.0
20260504222504 78 215 1.0 2.0 0.00 0.00 0.00 32 1013.0
20260504222005 79 225 2.0 2.0 0.00 0.00 0.00 29 1013.0
20260504221505 79 223 1.0 2.0 0.00 0.00 0.00 29 1013.0
20260504221003 79 246 1.0 2.0 0.00 0.00 0.00 30 1013.0
20260504220504 79 213 3.0 5.0 0.00 0.00 0.00 29 1013.0
20260504220004 79 0 0.0 0.0 0.00 0.00 0.00 30 1013.0
20260504215503 79 0 0.0 0.0 0.00 0.00 0.00 30 1013.0
20260504215003 79 221 2.0 2.0 0.00 0.00 0.00 31 1013.0
20260504214504 79 178 2.0 4.0 0.00 0.00 0.00 30 1013.0
20260504214003 79 226 2.0 3.0 0.00 0.00 0.00 30 1013.0
20260504213503 79 46 0.0 0.0 0.00 0.00 0.00 34 1013.0
20260504213003 79 204 1.0 2.0 0.00 0.00 0.00 31 1013.0
20260504212503 79 212 3.0 4.0 0.00 0.00 0.00 30 1013.0
20260504212003 80 213 2.0 5.0 0.00 0.00 0.00 34 1013.0
20260504211506 80 211 1.0 1.0 0.00 0.00 0.00 32 1013.0
20260504211006 80 234 2.0 3.0 0.00 0.00 0.00 31 1013.0
20260504210504 80 203 0.0 1.0 0.00 0.00 0.00 34 1013.0
20260504210005 80 232 2.0 3.0 0.00 0.00 0.00 31 1013.0
20260504205503 80 99 0.0 0.0 0.00 0.00 0.00 32 1013.0
20260504205003 79 215 2.0 3.0 0.00 0.00 0.00 32 1013.0
20260504204504 80 302 1.0 3.0 0.00 0.00 0.00 31 1013.0
20260504204004 80 145 0.0 1.0 0.00 0.00 0.00 31 1014.0
20260504203504 81 210 1.0 2.0 0.00 0.00 0.00 31 1014.0
20260504203003 80 352 0.0 1.0 0.00 0.00 0.00 32 1014.0
20260504202504 80 220 2.0 5.0 0.00 0.00 0.00 32 1014.0
20260504202003 80 244 0.0 1.0 0.00 0.00 0.00 32 1014.0
20260504201504 80 235 4.0 6.0 0.00 0.00 0.00 30 1014.0
20260504201003 80 46 1.0 1.0 0.00 0.00 0.00 33 1014.0
20260504200503 80 224 2.0 4.0 0.00 0.00 0.00 31 1014.0
20260504200003 80 233 1.0 1.0 0.00 0.00 0.00 32 1014.0
20260504195505 79 334 0.0 0.0 0.00 0.00 0.00 32 1014.0
20260504195003 79 278 1.0 1.0 0.00 0.00 0.00 33 1014.0
20260504194505 79 182 1.0 1.0 0.00 0.00 0.00 35 1014.0
20260504194004 79 51 1.0 2.0 0.00 0.00 0.00 32 1014.0
20260504193504 79 217 2.0 3.0 0.00 0.00 0.00 32 1014.0
20260504193003 79 212 1.0 2.0 0.00 0.00 0.00 33 1014.0
20260504192509 79 313 1.0 2.0 0.00 0.00 0.00 31 1014.0
20260504192004 79 223 1.0 3.0 0.00 0.00 0.00 33 1014.0
20260504191503 79 170 2.0 2.0 0.00 0.00 0.00 32 1014.0
20260504191004 79 0 0.0 0.0 0.00 0.00 0.00 34 1015.0
20260504190506 79 201 2.0 4.0 0.00 0.00 0.00 30 1014.0
20260504190006 78 187 1.0 2.0 0.00 0.00 0.00 32 1015.0
20260504185503 77 67 1.0 2.0 0.00 0.00 0.00 33 1015.0
20260504185003 78 227 4.0 7.0 0.00 0.00 0.00 32 1015.0
20260504184503 78 226 2.0 4.0 0.00 0.00 0.00 33 1015.0
20260504184003 78 223 1.0 2.0 0.00 0.00 0.00 33 1015.0
20260504183505 78 341 1.0 2.0 0.00 0.00 0.00 32 1015.0
20260504183003 78 308 1.0 1.0 0.00 0.00 0.00 33 1015.0
20260504182504 77 48 1.0 2.0 0.00 0.00 0.00 34 1015.0
20260504182003 76 153 0.0 1.0 0.00 0.00 0.00 34 1015.0
20260504181504 77 204 1.0 4.0 0.00 0.00 0.00 33 1015.0
20260504181003 76 171 0.0 0.0 0.00 0.00 0.00 35 1015.0
20260504180504 76 15 2.0 2.0 0.00 0.00 0.00 34 1015.0
20260504180004 76 49 2.0 3.0 0.00 0.00 0.00 34 1015.0
20260504175503 76 29 2.0 3.0 0.00 0.00 0.00 35 1015.0
20260504175003 75 0 0.0 0.0 0.00 0.00 0.00 38 1015.0
20260504174503 75 216 2.0 3.0 0.00 0.00 0.00 38 1015.0
20260504174004 75 7 2.0 3.0 0.00 0.00 0.00 37 1015.0
20260504173504 75 185 1.0 1.0 0.00 0.00 0.00 37 1016.0
20260504173006 74 348 0.0 1.0 0.00 0.00 0.00 38 1016.0
20260504172505 74 66 2.0 3.0 0.00 0.00 0.00 38 1016.0
20260504172004 74 57 2.0 3.0 0.00 0.00 0.00 38 1016.0
20260504171503 74 212 1.0 1.0 0.00 0.00 0.00 39 1016.0
20260504171006 73 214 0.0 1.0 0.00 0.00 0.00 39 1016.0
20260504170506 73 262 0.0 1.0 0.00 0.00 0.00 41 1016.0
20260504151004 66 213 2.0 3.0 0.00 0.00 0.00 55 1017.0
20260504150504 65 43 2.0 3.0 0.00 0.00 0.00 56 1017.0
20260504141003 61 224 2.0 3.0 0.00 0.00 0.00 68 1018.0
20260504140503 60 228 1.0 2.0 0.00 0.00 0.00 71 1018.0
20260504130503 54 83 0.0 1.0 0.00 0.00 0.00 81 1018.0
20260504110503 43 0 0.0 0.0 0.00 0.00 0.00 95 1018.0
20260504100503 43 232 1.0 1.0 0.00 0.00 0.00 93 1017.0
20260504082004 42 0 0.0 0.0 0.00 0.00 0.00 91 1017.0
20260504081504 42 0 0.0 0.0 0.00 0.00 0.00 91 1017.0
20260504081003 42 0 0.0 0.0 0.00 0.00 0.00 91 1017.0
20260504080503 42 0 0.0 0.0 0.00 0.00 0.00 91 1017.0